Location: Recife
(8.0585°S, 34.8848°W)
Time: 12:01:25
(UTC-03:00)

Vanguard 1 - Pass Details

Date: 15 April 2026
Orbit: 654 x 3817 km, 34.3° (Epoch: 11 May)

Event Time Altitude Azimuth Distance (km) Brightness Sun altitude
Rises 18:42:47 0° 237° (WSW) 5,294 14.6 -21.8°
Reaches altitude 10° 18:45:36 10° 237° (WSW) 4,620 14.1 -22.5°
Maximum altitude 18:59:59 82° 323° (NW) 3,123 12.5 -26.0°
Drops below altitude 10° 19:23:08 10° 49° (NE) 6,910 14.0 -31.7°
Enters shadow 19:24:37 - 49° (NE) 7,188 14.1 -32.1°
